TimeEST,TemperatureF,Dew PointF,Humidity,Sea Level PressureIn,VisibilityMPH,Wind Direction,Wind SpeedMPH,Gust SpeedMPH,PrecipitationIn,Events,Conditions,WindDirDegrees,DateUTC
12:51 AM,19.9,16.0,85,30.15,10.0,SW,5.8,-,N/A,,Overcast,230,2013-12-27 05:51:00
1:02 AM,19.4,17.6,93,30.07,10.0,SW,3.5,-,N/A,,Overcast,220,2013-12-27 06:02:00
1:20 AM,19.4,17.6,93,30.07,10.0,SW,5.8,-,N/A,,Overcast,230,2013-12-27 06:20:00
1:51 AM,19.9,17.1,89,30.16,10.0,SW,3.5,-,N/A,,Overcast,220,2013-12-27 06:51:00
2:51 AM,19.9,18.0,92,30.16,4.0,SW,4.6,-,0.00,Snow,Light Snow,220,2013-12-27 07:51:00
3:11 AM,19.4,17.6,93,30.08,2.0,SSW,5.8,-,0.00,Snow,Light Snow,210,2013-12-27 08:11:00
3:21 AM,19.4,17.6,93,30.08,2.0,SW,6.9,-,0.00,Snow,Light Snow,220,2013-12-27 08:21:00
3:36 AM,19.4,17.6,93,30.07,5.0,SSW,6.9,-,0.00,Snow,Light Snow,210,2013-12-27 08:36:00
3:51 AM,21.0,18.0,88,30.15,7.0,SW,6.9,-,0.00,,Overcast,220,2013-12-27 08:51:00
4:51 AM,21.0,19.0,92,30.15,3.0,WSW,5.8,-,0.00,Snow,Light Snow,240,2013-12-27 09:51:00
5:02 AM,21.2,19.4,93,30.07,2.5,SW,8.1,-,0.00,Snow,Light Snow,230,2013-12-27 10:02:00
5:13 AM,21.2,19.4,93,30.07,3.0,SW,8.1,-,0.00,Snow,Light Snow,230,2013-12-27 10:13:00
5:49 AM,21.2,17.6,86,30.07,2.0,SW,12.7,-,0.00,Snow,Light Snow,220,2013-12-27 10:49:00
5:51 AM,21.0,18.0,88,30.14,2.0,SW,12.7,-,0.00,Snow,Light Snow,230,2013-12-27 10:51:00
6:11 AM,21.2,17.6,86,30.07,3.0,SW,9.2,-,0.00,Snow,Light Snow,230,2013-12-27 11:11:00
6:46 AM,21.2,17.6,86,30.08,2.5,WSW,8.1,-,0.00,Snow,Light Snow,240,2013-12-27 11:46:00
6:51 AM,21.0,18.0,88,30.16,2.5,WSW,8.1,-,0.00,Snow,Light Snow,240,2013-12-27 11:51:00
7:01 AM,21.2,17.6,86,30.09,5.0,WSW,9.2,-,0.00,Snow,Light Snow,240,2013-12-27 12:01:00
7:12 AM,21.2,17.6,86,30.09,2.5,WSW,8.1,-,0.00,Snow,Light Snow,240,2013-12-27 12:12:00
7:22 AM,21.2,17.6,86,30.09,1.5,WSW,6.9,-,0.00,Snow,Light Snow,240,2013-12-27 12:22:00
7:33 AM,21.2,17.6,86,30.09,3.0,WSW,6.9,17.3,0.00,Snow,Light Snow,250,2013-12-27 12:33:00
7:51 AM,21.0,18.0,88,30.17,3.0,WSW,8.1,-,0.00,Snow,Light Snow,240,2013-12-27 12:51:00
7:56 AM,21.2,17.6,86,30.09,1.5,WSW,8.1,-,0.00,Snow,Light Snow,240,2013-12-27 12:56:00
8:19 AM,21.2,17.6,86,30.10,3.0,WSW,9.2,-,0.00,Snow,Light Snow,240,2013-12-27 13:19:00
8:30 AM,21.2,17.6,86,30.10,6.0,WSW,6.9,-,0.00,,Overcast,250,2013-12-27 13:30:00
8:51 AM,21.0,17.1,85,30.19,7.0,WSW,9.2,-,0.00,,Overcast,240,2013-12-27 13:51:00
9:22 AM,19.4,17.6,93,30.11,2.0,WSW,8.1,-,0.00,Snow,Light Snow,240,2013-12-27 14:22:00
9:30 AM,19.4,17.6,93,30.10,1.5,WSW,6.9,-,0.00,Snow,Light Snow,250,2013-12-27 14:30:00
9:51 AM,21.0,17.1,85,30.19,1.8,WSW,8.1,-,0.00,Snow,Light Snow,250,2013-12-27 14:51:00
10:03 AM,21.2,15.8,80,30.11,2.5,WSW,8.1,-,0.00,,Haze,240,2013-12-27 15:03:00
10:14 AM,21.2,17.6,86,30.10,3.0,SW,9.2,-,0.00,,Overcast,230,2013-12-27 15:14:00
10:38 AM,21.2,15.8,80,30.09,10.0,SW,8.1,-,0.00,,Overcast,230,2013-12-27 15:38:00
10:51 AM,21.9,15.1,75,30.17,4.0,WSW,9.2,-,0.00,Snow,Light Snow,240,2013-12-27 15:51:00
10:57 AM,21.2,15.8,80,30.09,2.5,WSW,10.4,16.1,0.00,Snow,Light Snow,250,2013-12-27 15:57:00
11:08 AM,21.2,15.8,80,30.08,1.5,WSW,9.2,-,0.00,Snow,Light Snow,250,2013-12-27 16:08:00
11:24 AM,21.2,17.6,86,30.08,0.8,SW,8.1,-,0.00,Snow,Light Snow,230,2013-12-27 16:24:00
11:51 AM,21.9,19.0,89,30.15,0.8,WSW,6.9,-,0.00,Snow,Light Snow,240,2013-12-27 16:51:00
12:10 PM,21.2,17.6,86,30.06,1.5,WSW,9.2,-,0.00,Snow,Light Snow,250,2013-12-27 17:10:00
12:51 PM,21.9,19.0,89,30.13,1.0,SW,8.1,-,0.00,Snow,Light Snow,230,2013-12-27 17:51:00
12:58 PM,21.2,19.4,93,30.05,0.5,SW,9.2,-,0.00,Fog-Snow,Snow,230,2013-12-27 17:58:00
1:12 PM,21.2,19.4,93,30.05,1.0,WSW,8.1,-,0.00,Snow,Light Snow,240,2013-12-27 18:12:00
1:31 PM,21.2,19.4,93,30.04,0.8,SW,9.2,-,0.00,Snow,Light Snow,230,2013-12-27 18:31:00
1:48 PM,23.0,19.4,86,30.04,1.0,SW,8.1,-,0.00,Snow,Light Snow,230,2013-12-27 18:48:00
1:51 PM,23.0,19.0,85,30.12,1.0,SW,6.9,-,0.00,Snow,Light Snow,230,2013-12-27 18:51:00
2:13 PM,23.0,19.4,86,30.04,1.2,SW,8.1,-,0.00,Snow,Light Snow,230,2013-12-27 19:13:00
2:26 PM,23.0,19.4,86,30.04,2.0,WSW,6.9,-,0.00,Snow,Light Snow,240,2013-12-27 19:26:00
2:39 PM,23.0,19.4,86,30.04,1.8,WSW,4.6,-,0.00,Snow,Light Snow,240,2013-12-27 19:39:00
2:51 PM,23.0,19.9,88,30.12,1.2,WSW,5.8,-,0.00,Snow,Light Snow,240,2013-12-27 19:51:00
3:51 PM,23.0,19.9,88,30.14,1.8,WSW,5.8,-,0.00,Snow,Light Snow,240,2013-12-27 20:51:00
3:58 PM,23.0,19.4,86,30.06,1.2,West,6.9,-,0.00,Snow,Light Snow,260,2013-12-27 20:58:00
4:26 PM,23.0,19.4,86,30.06,2.0,WSW,6.9,-,0.00,Snow,Light Snow,250,2013-12-27 21:26:00
4:49 PM,23.0,19.4,86,30.07,1.8,WSW,5.8,-,0.00,Snow,Light Snow,250,2013-12-27 21:49:00
4:51 PM,23.0,19.9,88,30.15,1.8,WSW,5.8,-,0.00,Snow,Light Snow,250,2013-12-27 21:51:00
5:08 PM,21.2,19.4,93,30.07,2.0,Variable,6.9,-,0.01,Snow,Light Snow,0,2013-12-27 22:08:00
5:17 PM,21.2,19.4,93,30.08,4.0,West,5.8,-,0.01,Snow,Light Snow,260,2013-12-27 22:17:00
5:51 PM,21.9,18.0,85,30.17,9.0,WSW,4.6,-,0.01,,Overcast,240,2013-12-27 22:51:00
6:05 PM,21.2,17.6,86,30.09,9.0,WSW,8.1,-,N/A,,Overcast,250,2013-12-27 23:05:00
6:51 PM,21.9,17.1,82,30.19,10.0,WSW,9.2,19.6,N/A,,Overcast,250,2013-12-27 23:51:00
7:51 PM,21.0,16.0,81,30.19,10.0,WSW,12.7,19.6,N/A,,Overcast,240,2013-12-28 00:51:00
8:51 PM,19.9,15.1,81,30.17,10.0,SW,5.8,-,N/A,,Overcast,230,2013-12-28 01:51:00
9:51 PM,21.0,16.0,81,30.16,10.0,SW,9.2,-,N/A,,Overcast,230,2013-12-28 02:51:00
10:51 PM,21.0,17.1,85,30.12,10.0,SW,15.0,-,N/A,,Mostly Cloudy,220,2013-12-28 03:51:00
11:36 PM,19.4,15.8,86,30.03,9.0,SSW,10.4,-,N/A,,Scattered Clouds,200,2013-12-28 04:36:00
11:51 PM,19.0,16.0,88,30.10,9.0,SSW,8.1,-,N/A,,Clear,210,2013-12-28 04:51:00